| time (UTC) | temp F | wind direction | speed MPH | gust MPH | rain 1hr in | rain 24hr in | rain mn in | humidity % | barometer mb |
| 20260506094337 | 53 | 327 | 0.0 | 1.0 | 0.00 | 0.00 | 0.00 | 88 | 1021.5 |
| 20260506093835 | 53 | 327 | 0.0 | 0.0 | 0.00 | 0.00 | 0.00 | 88 | 1021.2 |
| 20260506093332 | 53 | 327 | 0.0 | 0.0 | 0.00 | 0.00 | 0.00 | 88 | 1021.2 |
| 20260506092829 | 53 | 327 | 0.0 | 0.0 | 0.00 | 0.00 | 0.00 | 88 | 1021.2 |
| 20260506092327 | 53 | 327 | 0.0 | 0.0 | 0.00 | 0.00 | 0.00 | 87 | 1021.5 |
| 20260506091824 | 53 | 327 | 0.0 | 0.0 | 0.00 | 0.00 | 0.00 | 87 | 1021.5 |
| 20260506091322 | 53 | 327 | 0.0 | 0.0 | 0.00 | 0.00 | 0.00 | 87 | 1021.5 |
| 20260506090819 | 53 | 327 | 0.0 | 0.0 | 0.00 | 0.00 | 0.00 | 87 | 1021.5 |
| 20260506090316 | 54 | 327 | 0.0 | 0.0 | 0.00 | 0.00 | 0.00 | 87 | 1021.5 |
| 20260506085813 | 54 | 327 | 0.0 | 0.0 | 0.00 | 0.00 | 0.00 | 87 | 1021.5 |
| 20260506085309 | 54 | 327 | 0.0 | 0.0 | 0.00 | 0.00 | 0.00 | 86 | 1021.5 |
| 20260506084806 | 54 | 327 | 0.0 | 0.0 | 0.00 | 0.00 | 0.00 | 86 | 1021.5 |
| 20260506084302 | 54 | 327 | 0.0 | 0.0 | 0.00 | 0.00 | 0.00 | 86 | 1021.5 |
| 20260506083759 | 54 | 327 | 0.0 | 0.0 | 0.00 | 0.00 | 0.00 | 86 | 1021.9 |
| 20260506083257 | 54 | 327 | 0.0 | 0.0 | 0.00 | 0.00 | 0.00 | 86 | 1021.9 |
| 20260506082754 | 54 | 327 | 0.0 | 0.0 | 0.00 | 0.00 | 0.00 | 85 | 1021.9 |
| 20260506082249 | 55 | 327 | 0.0 | 0.0 | 0.00 | 0.00 | 0.00 | 85 | 1021.9 |
| 20260506081747 | 55 | 327 | 0.0 | 0.0 | 0.00 | 0.00 | 0.00 | 85 | 1021.9 |
| 20260506081244 | 55 | 327 | 0.0 | 0.0 | 0.00 | 0.00 | 0.00 | 85 | 1021.9 |
| 20260506080743 | 55 | 327 | 0.0 | 0.0 | 0.00 | 0.00 | 0.00 | 85 | 1021.9 |
| 20260506080238 | 55 | 327 | 0.0 | 0.0 | 0.00 | 0.00 | 0.00 | 84 | 1021.9 |
| 20260506073223 | 56 | 327 | 1.0 | 2.0 | 0.00 | 0.00 | 0.00 | 83 | 1021.5 |
| 20260506072719 | 56 | 327 | 0.0 | 2.0 | 0.00 | 0.00 | 0.00 | 82 | 1021.5 |
| 20260506072217 | 56 | 327 | 0.0 | 3.0 | 0.00 | 0.00 | 0.00 | 82 | 1021.5 |
| 20260506071714 | 56 | 327 | 0.0 | 0.0 | 0.00 | 0.00 | 0.00 | 82 | 1021.5 |
| 20260506071212 | 56 | 327 | 0.0 | 2.0 | 0.00 | 0.00 | 0.00 | 82 | 1021.5 |
| 20260506070709 | 56 | 327 | 0.0 | 2.0 | 0.00 | 0.00 | 0.00 | 82 | 1021.2 |
| 20260506070206 | 56 | 327 | 1.0 | 2.0 | 0.00 | 0.00 | 0.00 | 82 | 1021.2 |
| 20260506062143 | 56 | 327 | 1.0 | 3.0 | 0.00 | 0.01 | 0.01 | 82 | 1020.9 |
| 20260506061639 | 56 | 327 | 0.0 | 0.0 | 0.00 | 0.01 | 0.01 | 82 | 1020.9 |
| 20260506061137 | 57 | 327 | 0.0 | 0.0 | 0.00 | 0.01 | 0.01 | 82 | 1020.5 |
| 20260506060635 | 57 | 327 | 0.0 | 0.0 | 0.00 | 0.01 | 0.01 | 81 | 1020.5 |
| 20260506060131 | 57 | 327 | 1.0 | 2.0 | 0.00 | 0.01 | 0.01 | 81 | 1020.5 |
| 20260506051103 | 58 | 327 | 2.0 | 3.0 | 0.00 | 0.01 | 0.01 | 80 | 1019.8 |
| 20260506050602 | 58 | 327 | 1.0 | 3.0 | 0.00 | 0.01 | 0.01 | 80 | 1019.8 |
| 20260506045052 | 58 | 327 | 1.0 | 2.0 | 0.00 | 0.01 | 0.01 | 81 | 1020.2 |
| 20260506044550 | 59 | 327 | 1.0 | 2.0 | 0.00 | 0.01 | 0.01 | 81 | 1019.8 |
| 20260506044046 | 59 | 327 | 0.0 | 2.0 | 0.00 | 0.01 | 0.01 | 81 | 1019.8 |
| 20260506043543 | 59 | 327 | 0.0 | 0.0 | 0.00 | 0.01 | 0.01 | 81 | 1019.8 |
| 20260506043042 | 59 | 327 | 0.0 | 0.0 | 0.00 | 0.01 | 0.01 | 81 | 1019.8 |
| 20260506042541 | 59 | 327 | 0.0 | 1.0 | 0.00 | 0.01 | 0.01 | 81 | 1019.5 |
| 20260506042038 | 59 | 327 | 0.0 | 0.0 | 0.00 | 0.01 | 0.01 | 80 | 1019.5 |
| 20260506041537 | 59 | 327 | 0.0 | 0.0 | 0.00 | 0.01 | 0.01 | 80 | 1019.5 |
| 20260506041033 | 59 | 327 | 0.0 | 0.0 | 0.00 | 0.01 | 0.01 | 80 | 1019.5 |
| 20260506040531 | 59 | 327 | 0.0 | 0.0 | 0.00 | 0.01 | 0.01 | 80 | 1019.5 |
| 20260506040026 | 59 | 327 | 0.0 | 0.0 | 0.00 | 0.01 | 0.01 | 80 | 1019.5 |
| 20260506035524 | 60 | 327 | 0.0 | 0.0 | 0.00 | 0.01 | 0.01 | 79 | 1019.2 |
| 20260506035020 | 60 | 327 | 0.0 | 0.0 | 0.00 | 0.01 | 0.01 | 79 | 1019.2 |
| 20260506034518 | 60 | 327 | 0.0 | 0.0 | 0.00 | 0.01 | 0.01 | 79 | 1019.2 |
| 20260506034015 | 60 | 327 | 0.0 | 2.0 | 0.00 | 0.01 | 0.01 | 78 | 1019.5 |
| 20260506033512 | 60 | 327 | 0.0 | 2.0 | 0.00 | 0.01 | 0.01 | 78 | 1019.2 |
| 20260506033009 | 60 | 327 | 0.0 | 0.0 | 0.00 | 0.01 | 0.01 | 78 | 1019.2 |
| 20260506032506 | 60 | 327 | 0.0 | 0.0 | 0.00 | 0.01 | 0.01 | 78 | 1019.2 |
| 20260506032002 | 60 | 327 | 0.0 | 0.0 | 0.00 | 0.01 | 0.01 | 78 | 1018.8 |
| 20260506031500 | 61 | 327 | 0.0 | 0.0 | 0.00 | 0.01 | 0.01 | 78 | 1018.8 |
| 20260506030957 | 61 | 327 | 0.0 | 0.0 | 0.00 | 0.01 | 0.01 | 78 | 1018.8 |
| 20260506030455 | 61 | 327 | 0.0 | 0.0 | 0.00 | 0.01 | 0.01 | 77 | 1018.8 |
| 20260506025952 | 61 | 327 | 0.0 | 0.0 | 0.00 | 0.01 | 0.01 | 77 | 1018.8 |
| 20260506025449 | 62 | 327 | 0.0 | 0.0 | 0.00 | 0.01 | 0.01 | 76 | 1018.8 |
| 20260506024945 | 62 | 327 | 0.0 | 0.0 | 0.00 | 0.01 | 0.01 | 76 | 1018.8 |
| 20260506024442 | 62 | 327 | 0.0 | 0.0 | 0.00 | 0.01 | 0.01 | 75 | 1018.8 |
| 20260506023938 | 62 | 327 | 0.0 | 0.0 | 0.00 | 0.01 | 0.01 | 75 | 1018.5 |
| 20260506023435 | 62 | 327 | 0.0 | 0.0 | 0.00 | 0.01 | 0.01 | 75 | 1018.5 |
| 20260506022932 | 62 | 327 | 0.0 | 0.0 | 0.00 | 0.01 | 0.01 | 74 | 1018.5 |
| 20260506022429 | 62 | 327 | 0.0 | 0.0 | 0.00 | 0.01 | 0.01 | 74 | 1018.5 |
| 20260506021927 | 62 | 327 | 0.0 | 0.0 | 0.00 | 0.01 | 0.01 | 73 | 1018.5 |
| 20260506021424 | 62 | 327 | 0.0 | 2.0 | 0.00 | 0.01 | 0.01 | 73 | 1018.5 |
| 20260506020921 | 62 | 327 | 0.0 | 0.0 | 0.00 | 0.01 | 0.01 | 73 | 1018.5 |
| 20260506020419 | 62 | 327 | 1.0 | 2.0 | 0.00 | 0.01 | 0.01 | 72 | 1018.5 |
| 20260506015916 | 62 | 327 | 0.0 | 0.0 | 0.00 | 0.01 | 0.01 | 71 | 1018.1 |
| 20260506015414 | 62 | 327 | 1.0 | 3.0 | 0.00 | 0.01 | 0.01 | 71 | 1018.1 |
| 20260506014910 | 63 | 327 | 2.0 | 4.0 | 0.00 | 0.01 | 0.01 | 70 | 1018.1 |
| 20260506014407 | 63 | 321 | 2.0 | 4.0 | 0.00 | 0.01 | 0.01 | 70 | 1018.1 |
| 20260506013904 | 63 | 330 | 3.0 | 4.0 | 0.00 | 0.01 | 0.01 | 70 | 1018.1 |
| 20260506013402 | 63 | 327 | 2.0 | 6.0 | 0.00 | 0.01 | 0.01 | 70 | 1018.1 |
| 20260506012857 | 63 | 294 | 2.0 | 3.0 | 0.00 | 0.01 | 0.01 | 70 | 1018.5 |
| 20260506012354 | 63 | 294 | 0.0 | 2.0 | 0.00 | 0.01 | 0.01 | 70 | 1018.5 |
| 20260506011851 | 63 | 294 | 0.0 | 2.0 | 0.00 | 0.01 | 0.01 | 70 | 1018.5 |
| 20260506011348 | 63 | 294 | 2.0 | 4.0 | 0.00 | 0.01 | 0.01 | 70 | 1018.5 |
| 20260506010846 | 63 | 294 | 1.0 | 2.0 | 0.00 | 0.01 | 0.01 | 70 | 1018.5 |
| 20260506010344 | 63 | 294 | 0.0 | 0.0 | 0.00 | 0.01 | 0.01 | 69 | 1018.5 |
| 20260506005840 | 63 | 294 | 2.0 | 3.0 | 0.00 | 0.01 | 0.01 | 69 | 1018.5 |
| 20260506005337 | 63 | 294 | 1.0 | 3.0 | 0.00 | 0.01 | 0.01 | 70 | 1018.5 |
| 20260506004833 | 63 | 294 | 0.0 | 1.0 | 0.00 | 0.01 | 0.01 | 70 | 1018.5 |
| 20260506004331 | 63 | 294 | 2.0 | 3.0 | 0.00 | 0.01 | 0.01 | 70 | 1018.5 |
| 20260506003827 | 63 | 294 | 1.0 | 2.0 | 0.00 | 0.01 | 0.01 | 70 | 1018.5 |
| 20260506003323 | 63 | 294 | 0.0 | 0.0 | 0.00 | 0.01 | 0.01 | 70 | 1018.5 |
| 20260506002820 | 63 | 294 | 0.0 | 0.0 | 0.00 | 0.01 | 0.01 | 70 | 1018.5 |
| 20260506002316 | 63 | 294 | 2.0 | 3.0 | 0.00 | 0.01 | 0.01 | 70 | 1018.5 |
| 20260506001812 | 63 | 293 | 1.0 | 4.0 | 0.00 | 0.01 | 0.01 | 70 | 1018.1 |
| 20260506001309 | 63 | 293 | 1.0 | 3.0 | 0.00 | 0.01 | 0.01 | 70 | 1018.1 |
| 20260506000806 | 63 | 292 | 0.0 | 3.0 | 0.00 | 0.01 | 0.01 | 71 | 1018.1 |
| 20260506000304 | 63 | 325 | 1.0 | 2.0 | 0.00 | 0.01 | 0.01 | 71 | 1018.1 |
| 20260505235800 | 63 | 325 | 0.0 | 2.0 | 0.00 | 0.01 | 0.01 | 70 | 1018.1 |
| 20260505235258 | 63 | 325 | 0.0 | 1.0 | 0.00 | 0.01 | 0.01 | 70 | 1018.1 |
| 20260505234755 | 63 | 325 | 1.0 | 2.0 | 0.00 | 0.01 | 0.01 | 71 | 1018.1 |
| 20260505234252 | 63 | 325 | 1.0 | 3.0 | 0.00 | 0.01 | 0.01 | 70 | 1018.1 |
| 20260505233749 | 63 | 325 | 2.0 | 4.0 | 0.00 | 0.01 | 0.01 | 70 | 1018.1 |
| 20260505233247 | 63 | 325 | 2.0 | 4.0 | 0.00 | 0.01 | 0.01 | 70 | 1018.1 |
| 20260505232744 | 63 | 325 | 1.0 | 3.0 | 0.00 | 0.01 | 0.01 | 70 | 1018.1 |
| 20260505232241 | 63 | 325 | 2.0 | 3.0 | 0.00 | 0.01 | 0.01 | 70 | 1018.1 |
| 20260505231737 | 63 | 327 | 1.0 | 3.0 | 0.00 | 0.01 | 0.01 | 70 | 1018.1 |
| 20260505231237 | 63 | 324 | 2.0 | 6.0 | 0.00 | 0.01 | 0.01 | 70 | 1018.1 |
| 20260505230735 | 63 | 280 | 1.0 | 3.0 | 0.00 | 0.01 | 0.01 | 71 | 1018.1 |
| 20260505230231 | 63 | 280 | 1.0 | 2.0 | 0.00 | 0.01 | 0.01 | 71 | 1018.1 |
| 20260505225727 | 63 | 327 | 2.0 | 4.0 | 0.00 | 0.01 | 0.01 | 71 | 1018.1 |
| 20260505225225 | 62 | 316 | 3.0 | 6.0 | 0.00 | 0.01 | 0.01 | 71 | 1018.1 |
| 20260505224720 | 63 | 306 | 2.0 | 4.0 | 0.00 | 0.01 | 0.01 | 71 | 1018.1 |
| 20260505224218 | 63 | 327 | 2.0 | 5.0 | 0.00 | 0.01 | 0.01 | 71 | 1018.1 |
| 20260505223715 | 63 | 324 | 3.0 | 5.0 | 0.00 | 0.01 | 0.01 | 71 | 1018.1 |
| 20260505223211 | 62 | 324 | 1.0 | 2.0 | 0.00 | 0.01 | 0.01 | 72 | 1018.5 |
| 20260505222707 | 62 | 340 | 1.0 | 4.0 | 0.00 | 0.01 | 0.01 | 72 | 1018.5 |
| 20260505222203 | 62 | 319 | 0.0 | 0.0 | 0.00 | 0.01 | 0.01 | 73 | 1018.5 |
| 20260505221701 | 62 | 319 | 1.0 | 2.0 | 0.00 | 0.01 | 0.01 | 73 | 1018.5 |
| 20260505221157 | 62 | 315 | 3.0 | 6.0 | 0.00 | 0.01 | 0.01 | 73 | 1018.5 |
| 20260505220654 | 62 | 296 | 2.0 | 6.0 | 0.00 | 0.01 | 0.01 | 73 | 1018.5 |
| 20260505220152 | 62 | 317 | 2.0 | 4.0 | 0.00 | 0.01 | 0.01 | 73 | 1018.5 |
| 20260505215650 | 62 | 343 | 1.0 | 5.0 | 0.00 | 0.01 | 0.01 | 73 | 1018.5 |
| 20260505215148 | 62 | 315 | 2.0 | 5.0 | 0.00 | 0.01 | 0.01 | 73 | 1018.5 |
| 20260505214645 | 61 | 324 | 1.0 | 3.0 | 0.00 | 0.01 | 0.01 | 73 | 1018.5 |
| 20260505214142 | 61 | 286 | 1.0 | 3.0 | 0.00 | 0.01 | 0.01 | 73 | 1018.8 |
| 20260505213640 | 61 | 278 | 1.0 | 3.0 | 0.00 | 0.01 | 0.01 | 73 | 1018.8 |
| 20260505213136 | 61 | 311 | 3.0 | 5.0 | 0.00 | 0.01 | 0.01 | 74 | 1018.5 |
| 20260505212632 | 61 | 325 | 3.0 | 6.0 | 0.00 | 0.01 | 0.01 | 74 | 1018.8 |
| 20260505212130 | 61 | 334 | 1.0 | 4.0 | 0.00 | 0.01 | 0.01 | 74 | 1018.5 |
| 20260505211627 | 61 | 334 | 0.0 | 2.0 | 0.00 | 0.01 | 0.01 | 73 | 1018.5 |
| 20260505211124 | 61 | 310 | 3.0 | 6.0 | 0.00 | 0.01 | 0.01 | 73 | 1018.5 |
| 20260505210621 | 61 | 308 | 3.0 | 7.0 | 0.00 | 0.01 | 0.01 | 73 | 1018.5 |
| 20260505210117 | 61 | 302 | 3.0 | 6.0 | 0.00 | 0.01 | 0.01 | 74 | 1018.5 |
| 20260505205615 | 61 | 307 | 3.0 | 4.0 | 0.00 | 0.01 | 0.01 | 74 | 1018.5 |
| 20260505205113 | 60 | 315 | 1.0 | 3.0 | 0.00 | 0.01 | 0.01 | 75 | 1018.8 |
| 20260505204610 | 60 | 298 | 1.0 | 4.0 | 0.00 | 0.01 | 0.01 | 75 | 1018.8 |
| 20260505204107 | 60 | 305 | 2.0 | 4.0 | 0.00 | 0.01 | 0.01 | 75 | 1018.8 |
| 20260505203603 | 60 | 321 | 0.0 | 1.0 | 0.00 | 0.01 | 0.01 | 75 | 1019.2 |
| 20260505203101 | 60 | 318 | 3.0 | 7.0 | 0.00 | 0.01 | 0.01 | 75 | 1019.2 |
| 20260505202556 | 60 | 308 | 3.0 | 8.0 | 0.00 | 0.01 | 0.01 | 75 | 1018.8 |
| 20260505202053 | 60 | 321 | 1.0 | 4.0 | 0.00 | 0.01 | 0.01 | 75 | 1018.8 |
| 20260505201549 | 60 | 316 | 2.0 | 4.0 | 0.00 | 0.01 | 0.01 | 75 | 1019.2 |
| 20260505201047 | 60 | 327 | 3.0 | 4.0 | 0.00 | 0.01 | 0.01 | 75 | 1019.2 |
| 20260505200545 | 60 | 327 | 2.0 | 4.0 | 0.00 | 0.01 | 0.01 | 76 | 1019.2 |
| 20260505200042 | 59 | 343 | 1.0 | 3.0 | 0.00 | 0.01 | 0.01 | 76 | 1019.2 |
| 20260505195538 | 59 | 338 | 2.0 | 4.0 | 0.00 | 0.01 | 0.01 | 76 | 1019.2 |
| 20260505195036 | 59 | 321 | 2.0 | 4.0 | 0.00 | 0.01 | 0.01 | 77 | 1019.2 |
| 20260505194533 | 59 | 327 | 2.0 | 4.0 | 0.00 | 0.01 | 0.01 | 76 | 1019.2 |
| 20260505194027 | 59 | 315 | 4.0 | 7.0 | 0.00 | 0.01 | 0.01 | 75 | 1019.2 |
| 20260505193525 | 59 | 316 | 2.0 | 4.0 | 0.00 | 0.01 | 0.01 | 76 | 1019.2 |
| 20260505193022 | 59 | 316 | 0.0 | 2.0 | 0.00 | 0.01 | 0.01 | 76 | 1019.2 |
| 20260505192521 | 59 | 298 | 3.0 | 6.0 | 0.00 | 0.01 | 0.01 | 75 | 1019.2 |
| 20260505192018 | 59 | 297 | 1.0 | 3.0 | 0.00 | 0.01 | 0.01 | 75 | 1019.2 |
| 20260505191516 | 59 | 327 | 1.0 | 3.0 | 0.00 | 0.01 | 0.01 | 75 | 1019.2 |
| 20260505191014 | 59 | 303 | 2.0 | 4.0 | 0.00 | 0.01 | 0.01 | 75 | 1019.2 |
| 20260505190508 | 59 | 321 | 1.0 | 5.0 | 0.00 | 0.01 | 0.01 | 75 | 1019.2 |
| 20260505190005 | 59 | 338 | 1.0 | 5.0 | 0.00 | 0.01 | 0.01 | 75 | 1019.2 |
| 20260505185502 | 59 | 294 | 2.0 | 4.0 | 0.00 | 0.01 | 0.01 | 76 | 1019.2 |
| 20260505184957 | 59 | 312 | 3.0 | 6.0 | 0.00 | 0.01 | 0.01 | 76 | 1019.2 |
| 20260505184455 | 59 | 338 | 2.0 | 4.0 | 0.00 | 0.01 | 0.01 | 76 | 1018.8 |
| 20260505183951 | 59 | 321 | 2.0 | 4.0 | 0.00 | 0.01 | 0.01 | 75 | 1018.8 |
| 20260505183448 | 59 | 323 | 3.0 | 6.0 | 0.00 | 0.01 | 0.01 | 75 | 1018.8 |
| 20260505182945 | 59 | 324 | 1.0 | 2.0 | 0.00 | 0.01 | 0.01 | 75 | 1018.8 |
| 20260505182442 | 59 | 171 | 0.0 | 3.0 | 0.00 | 0.01 | 0.01 | 76 | 1018.8 |
| 20260505181938 | 58 | 338 | 1.0 | 5.0 | 0.00 | 0.01 | 0.01 | 77 | 1018.8 |
| 20260505181435 | 58 | 331 | 0.0 | 2.0 | 0.00 | 0.01 | 0.01 | 77 | 1018.8 |
| 20260505180932 | 58 | 331 | 1.0 | 3.0 | 0.00 | 0.01 | 0.01 | 77 | 1018.8 |
| 20260505180428 | 58 | 331 | 2.0 | 4.0 | 0.00 | 0.01 | 0.01 | 78 | 1018.8 |
| 20260505175925 | 57 | 331 | 0.0 | 1.0 | 0.00 | 0.01 | 0.01 | 78 | 1018.8 |
| 20260505175422 | 57 | 331 | 1.0 | 4.0 | 0.00 | 0.01 | 0.01 | 78 | 1018.8 |
| 20260505174918 | 57 | 331 | 1.0 | 4.0 | 0.00 | 0.01 | 0.01 | 78 | 1018.8 |
| 20260505174416 | 57 | 331 | 1.0 | 2.0 | 0.00 | 0.01 | 0.01 | 78 | 1018.8 |
| 20260505173912 | 57 | 331 | 0.0 | 1.0 | 0.00 | 0.01 | 0.01 | 78 | 1018.8 |
| 20260505173408 | 57 | 331 | 3.0 | 4.0 | 0.00 | 0.01 | 0.01 | 78 | 1018.8 |
| 20260505172905 | 57 | 331 | 1.0 | 4.0 | 0.00 | 0.01 | 0.01 | 79 | 1018.5 |
| 20260505172403 | 57 | 331 | 1.0 | 5.0 | 0.00 | 0.01 | 0.01 | 79 | 1018.5 |
| 20260505171902 | 57 | 331 | 1.0 | 3.0 | 0.00 | 0.01 | 0.01 | 81 | 1018.5 |
| 20260505171400 | 57 | 331 | 1.0 | 3.0 | 0.00 | 0.01 | 0.01 | 81 | 1018.5 |
| 20260505170856 | 57 | 331 | 1.0 | 3.0 | 0.00 | 0.01 | 0.01 | 81 | 1018.8 |
| 20260505170353 | 57 | 331 | 1.0 | 3.0 | 0.00 | 0.01 | 0.01 | 81 | 1018.8 |
| 20260505165848 | 56 | 331 | 1.0 | 4.0 | 0.00 | 0.01 | 0.01 | 81 | 1018.8 |
| 20260505165344 | 56 | 334 | 2.0 | 4.0 | 0.00 | 0.01 | 0.01 | 81 | 1018.8 |
| 20260505164840 | 56 | 334 | 1.0 | 3.0 | 0.00 | 0.01 | 0.01 | 82 | 1018.5 |
| 20260505164337 | 56 | 316 | 2.0 | 5.0 | 0.00 | 0.01 | 0.01 | 83 | 1018.5 |
| 20260505163835 | 56 | 286 | 2.0 | 3.0 | 0.00 | 0.01 | 0.01 | 83 | 1018.5 |
| 20260505163334 | 56 | 321 | 1.0 | 2.0 | 0.00 | 0.01 | 0.01 | 84 | 1018.5 |
| 20260505162832 | 55 | 321 | 1.0 | 2.0 | 0.00 | 0.01 | 0.01 | 85 | 1018.5 |
| 20260505162328 | 55 | 321 | 0.0 | 1.0 | 0.00 | 0.01 | 0.01 | 85 | 1018.5 |
| 20260505161825 | 55 | 321 | 1.0 | 4.0 | 0.00 | 0.01 | 0.01 | 85 | 1018.5 |
| 20260505161322 | 55 | 321 | 1.0 | 2.0 | 0.00 | 0.01 | 0.01 | 85 | 1018.5 |
| 20260505160819 | 55 | 321 | 2.0 | 3.0 | 0.00 | 0.01 | 0.01 | 85 | 1018.5 |
| 20260505160317 | 55 | 321 | 2.0 | 4.0 | 0.00 | 0.01 | 0.01 | 86 | 1018.5 |
| 20260505153256 | 55 | 321 | 2.0 | 4.0 | 0.00 | 0.01 | 0.01 | 86 | 1018.5 |
| 20260505152754 | 55 | 321 | 1.0 | 2.0 | 0.00 | 0.01 | 0.01 | 86 | 1018.5 |
| 20260505152250 | 55 | 321 | 0.0 | 2.0 | 0.00 | 0.01 | 0.01 | 86 | 1018.1 |
| 20260505151749 | 55 | 321 | 2.0 | 3.0 | 0.00 | 0.01 | 0.01 | 86 | 1018.1 |
| 20260505151247 | 55 | 321 | 1.0 | 2.0 | 0.00 | 0.01 | 0.01 | 87 | 1018.1 |
| 20260505150744 | 54 | 321 | 1.0 | 4.0 | 0.00 | 0.01 | 0.01 | 87 | 1018.1 |
| 20260505150242 | 54 | 321 | 0.0 | 2.0 | 0.00 | 0.01 | 0.01 | 88 | 1018.1 |
| 20260505140211 | 53 | 321 | 0.0 | 1.0 | 0.00 | 0.01 | 0.01 | 91 | 1017.8 |
| 20260505130135 | 53 | 321 | 0.0 | 0.0 | 0.00 | 0.01 | 0.01 | 92 | 1017.5 |
| 20260505124625 | 53 | 321 | 0.0 | 1.0 | 0.00 | 0.01 | 0.01 | 92 | 1017.5 |
| 20260505124121 | 53 | 321 | 0.0 | 0.0 | 0.00 | 0.01 | 0.01 | 92 | 1017.5 |
| 20260505123617 | 53 | 321 | 0.0 | 0.0 | 0.00 | 0.01 | 0.01 | 92 | 1017.5 |
| 20260505123114 | 53 | 321 | 0.0 | 0.0 | 0.00 | 0.01 | 0.01 | 92 | 1017.5 |
| 20260505122611 | 53 | 321 | 0.0 | 0.0 | 0.00 | 0.01 | 0.01 | 92 | 1017.5 |
| 20260505122108 | 53 | 321 | 0.0 | 0.0 | 0.00 | 0.01 | 0.01 | 92 | 1017.5 |
| 20260505121604 | 53 | 321 | 0.0 | 0.0 | 0.00 | 0.01 | 0.01 | 92 | 1017.5 |
| 20260505121101 | 53 | 321 | 0.0 | 0.0 | 0.00 | 0.01 | 0.01 | 92 | 1017.5 |
| 20260505120557 | 53 | 321 | 0.0 | 2.0 | 0.00 | 0.01 | 0.01 | 92 | 1017.5 |
| 20260505120053 | 53 | 321 | 0.0 | 0.0 | 0.00 | 0.01 | 0.01 | 92 | 1017.5 |
| 20260505115548 | 53 | 321 | 0.0 | 1.0 | 0.00 | 0.01 | 0.01 | 92 | 1017.5 |
| 20260505115046 | 53 | 321 | 0.0 | 0.0 | 0.00 | 0.01 | 0.01 | 92 | 1017.8 |
| 20260505114543 | 53 | 321 | 0.0 | 0.0 | 0.00 | 0.01 | 0.01 | 92 | 1017.5 |
| 20260505114039 | 53 | 321 | 0.0 | 0.0 | 0.00 | 0.01 | 0.01 | 92 | 1017.5 |
| 20260505113535 | 53 | 321 | 0.0 | 0.0 | 0.00 | 0.01 | 0.01 | 92 | 1017.8 |
| 20260505113032 | 53 | 321 | 0.0 | 0.0 | 0.00 | 0.01 | 0.01 | 92 | 1017.8 |
| 20260505112528 | 53 | 321 | 0.0 | 0.0 | 0.00 | 0.01 | 0.01 | 91 | 1017.8 |
| 20260505112026 | 53 | 321 | 0.0 | 0.0 | 0.00 | 0.01 | 0.01 | 91 | 1017.8 |
| 20260505111520 | 53 | 321 | 0.0 | 1.0 | 0.00 | 0.01 | 0.01 | 91 | 1017.5 |
| 20260505111016 | 53 | 321 | 0.0 | 0.0 | 0.00 | 0.01 | 0.01 | 91 | 1017.5 |
| 20260505110513 | 53 | 321 | 0.0 | 0.0 | 0.00 | 0.01 | 0.01 | 91 | 1017.5 |
| 20260505101945 | 53 | 321 | 0.0 | 0.0 | 0.00 | 0.01 | 0.01 | 91 | 1017.5 |
| 20260505101443 | 53 | 321 | 0.0 | 1.0 | 0.00 | 0.01 | 0.01 | 91 | 1017.5 |
| 20260505100940 | 53 | 321 | 0.0 | 1.0 | 0.00 | 0.01 | 0.01 | 91 | 1017.8 |
| 20260505100437 | 53 | 321 | 0.0 | 0.0 | 0.00 | 0.01 | 0.01 | 91 | 1017.8 |
| 20260505095933 | 53 | 321 | 0.0 | 0.0 | 0.00 | 0.01 | 0.01 | 91 | 1017.8 |
| 20260505095430 | 53 | 321 | 0.0 | 2.0 | 0.00 | 0.01 | 0.01 | 91 | 1017.8 |
| 20260505094926 | 53 | 321 | 0.0 | 0.0 | 0.00 | 0.01 | 0.01 | 91 | 1017.8 |